Date,TemperatureHighF,TemperatureAvgF,TemperatureLowF,DewpointHighF,DewpointAvgF,DewpointLowF,HumidityHigh,HumidityAvg,HumidityLow,PressureMaxIn,PressureMinIn,WindSpeedMaxMPH,WindSpeedAvgMPH,GustSpeedMaxMPH,PrecipitationSumIn
2013-6-27,88.8,70.2,57.2,66.7,59.7,54.8,95,73,44,30.08,30.02,1,0,8,0.01
2013-6-28,98.2,76.6,63.0,67.3,59.5,54.2,77,58,32,30.03,29.92,1,0,7,0.00
2013-6-29,99.5,78.6,65.7,65.5,58.4,51.2,73,52,31,29.93,29.82,1,0,5,0.00
2013-6-30,91.4,70.5,57.3,64.4,57.5,52.8,85,65,40,29.85,29.78,2,0,6,0.00
2013-7-1,94.0,73.6,57.1,65.6,57.8,52.5,87,61,35,29.86,29.80,2,0,8,0.00
2013-7-2,92.2,72.3,57.6,65.5,58.3,53.5,87,63,38,29.91,29.83,2,0,8,0.00
2013-7-3,94.1,74.9,56.2,64.0,57.6,53.1,90,58,35,29.90,29.77,2,0,7,0.00
2013-7-4,94.2,74.0,59.8,65.6,58.0,51.1,76,59,36,29.79,29.70,4,0,7,0.00
2013-7-5,67.8,56.3,51.1,55.4,50.8,48.6,93,82,62,29.78,29.72,10,2,14,0.00
2013-7-6,77.2,58.1,51.8,58.7,51.5,48.6,92,81,52,29.80,29.73,7,1,10,0.00
2013-7-7,78.6,60.6,51.4,58.7,52.8,48.9,92,78,49,29.83,29.77,4,0,7,0.00
2013-7-8,80.4,62.4,51.8,59.2,53.1,49.3,92,74,44,29.95,29.83,4,0,5,0.00
2013-7-9,88.0,62.0,54.5,63.3,54.8,51.3,92,80,43,30.01,29.95,3,0,4,0.00
2013-7-10,83.7,61.1,51.2,59.3,52.0,48.0,92,75,43,29.96,29.89,1,0,6,0.00
2013-7-11,73.3,58.8,49.6,56.6,51.3,47.5,93,78,53,29.92,29.87,4,0,8,0.00
2013-7-12,77.3,60.4,51.3,57.5,51.7,47.5,92,75,49,29.92,29.87,5,0,7,0.00
2013-7-13,83.2,63.3,51.6,58.3,52.3,47.4,92,71,35,29.95,29.88,4,0,6,0.00
2013-7-14,77.8,60.0,50.4,57.7,51.6,47.4,92,76,47,29.98,29.89,4,0,7,0.00
2013-7-15,72.2,55.7,49.0,57.3,50.4,47.1,94,84,57,29.90,29.83,4,1,6,0.00
2013-7-16,70.1,57.0,52.2,56.4,51.7,49.1,91,83,61,30.00,29.84,5,0,13,0.00
2013-7-17,76.7,60.0,52.7,58.8,53.3,50.1,92,80,53,30.08,30.00,5,0,7,0.00
2013-7-18,84.4,59.3,51.1,61.0,53.1,49.4,94,83,44,30.04,29.99,6,0,6,0.00
2013-7-31,72.3,57.8,50.5,56.6,51.7,48.4,93,81,55,30.06,30.00,3,1,11,0.00
2013-8-1,72.4,57.5,51.6,56.0,51.6,49.4,93,82,55,30.06,29.95,3,1,13,0.00
2013-8-2,73.8,59.6,52.9,56.3,48.6,44.0,91,68,53,29.96,29.90,1,0,11,0.00
2013-8-3,71.0,59.1,52.2,56.0,48.5,43.5,72,68,59,29.96,29.89,1,0,11,0.00
2013-8-4,68.6,56.3,52.0,54.6,46.7,43.3,74,70,61,29.99,29.94,1,0,11,0.00
2013-8-5,68.7,60.2,51.7,55.3,42.6,43.0,74,69,61,30.00,29.93,1,0,10,0.00
2013-8-6,71.2,58.7,51.7,57.3,50.6,43.1,91,75,59,30.01,29.94,4,0,9,0.00
2013-8-7,71.8,58.1,52.1,58.1,53.3,50.4,94,85,60,30.08,30.01,6,0,6,0.01
2013-8-8,73.8,59.0,52.2,58.7,53.5,49.7,94,83,56,30.01,29.92,4,0,6,0.00
2013-8-9,72.3,57.1,51.2,59.0,52.7,49.2,94,86,60,29.97,29.89,5,0,6,0.00
2013-8-10,75.1,59.3,52.8,59.5,54.1,50.9,94,84,57,30.03,29.96,5,0,7,0.00
2013-8-11,76.9,58.9,52.7,61.0,53.9,50.8,95,85,55,30.00,29.93,4,0,6,0.00
2013-8-12,55.2,53.2,52.5,53.5,51.4,50.5,94,94,92,29.97,29.92,4,0,5,0.00
2013-8-13,88.8,63.8,51.6,62.9,54.1,49.7,94,75,38,29.97,29.91,4,0,8,0.00
2013-8-14,80.9,61.8,52.1,60.0,54.6,49.5,94,80,48,29.97,29.91,6,1,8,0.00
2013-8-15,83.5,66.2,58.5,66.4,60.2,56.7,94,83,55,29.96,29.91,7,0,8,0.00
2013-8-16,62.9,60.0,59.1,61.5,58.3,57.1,95,94,92,29.97,29.93,3,0,5,0.00
2013-8-21,76.2,60.3,53.6,58.4,53.7,51.1,93,80,54,29.92,29.85,1,0,9,0.00
2013-8-22,75.7,59.5,53.3,57.5,53.0,51.0,92,81,53,29.95,29.88,1,0,9,0.00
2013-8-23,72.5,58.3,53.0,58.3,53.2,50.7,93,84,60,29.91,29.81,3,0,8,0.00
2013-8-24,76.0,61.4,54.0,60.1,55.3,51.7,94,82,57,29.89,29.83,2,0,10,0.00
2013-8-25,80.4,64.3,58.4,64.9,58.9,54.9,95,84,58,29.93,29.88,1,0,7,0.01
2013-8-26,79.0,62.7,55.2,61.0,55.5,52.3,92,79,52,29.99,29.89,1,0,6,0.00
2013-8-27,81.8,64.9,53.8,61.7,56.8,51.7,94,78,47,29.89,29.82,5,0,7,0.00
2013-8-28,82.8,64.1,56.0,65.0,58.3,54.0,94,83,54,29.93,29.84,5,0,6,0.00
2013-8-29,83.5,65.1,57.3,65.5,59.2,55.6,95,83,53,30.05,29.93,3,0,5,0.00
2013-8-30,90.3,68.7,58.6,66.5,60.0,56.1,95,77,40,30.03,29.92,4,0,5,0.00
2013-8-31,80.3,63.1,54.7,61.1,56.2,52.1,94,80,50,29.97,29.89,5,0,6,0.00
2013-9-1,82.4,64.1,55.0,61.1,56.8,53.0,94,79,46,29.94,29.88,7,0,7,0.00
2013-9-2,78.7,65.2,59.5,64.0,59.7,57.2,94,83,60,29.95,29.88,5,0,5,0.00
2013-9-3,79.5,63.7,56.2,60.4,56.5,54.2,95,80,48,29.99,29.92,4,0,6,0.00
2013-9-4,79.7,63.9,56.7,60.9,57.1,54.4,93,80,50,30.02,29.93,6,0,9,0.00
2013-9-5,80.2,63.4,56.4,59.8,56.0,53.3,93,79,48,30.00,29.94,6,0,7,0.00
2013-9-6,94.0,70.4,52.9,56.6,52.3,47.4,92,59,26,29.97,29.84,3,0,7,0.00
2013-9-7,97.0,76.7,66.0,60.0,50.6,46.1,55,41,25,29.88,29.82,4,0,5,0.00
2013-9-8,90.3,72.1,60.7,64.7,56.0,48.9,84,59,37,29.86,29.76,4,0,4,0.00
2013-9-9,92.0,70.9,58.2,63.3,55.8,49.3,88,62,30,29.80,29.71,5,0,5,0.00
2013-9-10,77.0,62.5,55.1,61.5,56.2,52.4,93,81,57,29.88,29.73,8,1,8,0.00
2013-9-11,75.1,62.5,57.9,60.0,56.4,54.7,92,81,59,29.98,29.88,6,0,7,0.00
2013-9-12,77.8,61.9,56.1,62.6,57.1,54.1,93,85,57,29.96,29.88,5,0,6,0.00
2013-9-13,74.8,57.9,54.1,60.3,54.3,52.4,95,89,59,29.89,29.81,6,0,6,0.00
2013-9-28,83.6,64.1,55.5,53.8,43.1,34.2,91,50,27,30.06,29.99,1,0,8,0.00
2013-9-29,75.5,60.5,54.1,60.1,55.4,51.2,93,84,58,30.09,30.03,1,0,6,0.00
2013-9-30,70.3,60.6,53.4,63.4,57.6,47.4,95,90,74,30.05,29.95,1,0,7,0.07
2013-10-1,71.3,57.3,48.7,55.3,49.0,43.3,93,75,52,29.99,29.91,1,0,7,0.00
2013-10-2,75.3,59.4,51.4,56.4,49.0,43.0,87,70,46,29.99,29.91,1,0,7,0.00
2013-10-3,73.2,58.8,46.2,45.0,37.7,30.9,77,49,25,30.04,29.88,3,0,16,0.00
2013-10-4,79.2,65.2,54.9,39.1,33.6,29.7,41,31,23,30.07,29.88,3,0,16,0.00
2013-10-5,85.4,67.6,58.0,40.8,33.5,27.7,35,29,19,30.17,30.07,3,0,5,0.00
2013-10-6,86.6,68.7,59.5,47.5,36.9,30.6,39,32,21,30.09,29.98,4,0,4,0.00
2013-10-7,83.0,66.0,53.5,48.8,39.8,29.6,82,41,23,29.98,29.86,4,0,5,0.00
2013-10-8,75.1,57.6,49.0,51.7,46.5,42.0,89,68,40,29.88,29.70,4,0,5,0.00
2013-10-9,68.4,54.8,45.8,49.6,44.9,38.7,91,72,47,29.74,29.60,8,0,8,0.00
2013-10-10,56.9,54.5,53.4,41.8,39.4,37.8,64,57,49,29.77,29.74,2,0,3,0.00
2013-10-19,84.2,66.5,56.7,53.6,43.3,38.8,53,44,30,30.05,29.98,0,0,6,0.00
2013-10-20,80.0,63.3,53.9,55.5,45.6,40.3,67,53,38,30.00,29.89,1,0,5,0.00
2013-10-21,72.1,56.8,44.9,54.3,47.5,42.0,93,73,52,29.97,29.89,1,0,5,0.00
2013-10-22,75.4,59.7,48.6,56.3,49.4,45.3,92,70,46,29.98,29.90,1,0,6,0.00
2013-10-23,70.9,53.6,45.4,56.7,48.1,42.6,94,82,56,29.94,29.88,1,0,5,0.00
2013-10-24,58.6,49.0,46.4,50.4,46.1,44.4,94,90,71,30.06,29.94,1,0,7,0.00
2013-10-25,72.0,57.7,45.2,55.0,49.2,43.3,94,75,44,30.13,30.06,3,0,5,0.00
2013-10-26,81.2,62.4,51.9,56.0,46.4,39.8,84,59,32,30.11,30.00,3,0,6,0.00
2013-10-27,59.0,50.1,46.5,48.8,46.0,42.9,93,86,60,30.00,29.65,9,1,12,0.00
2013-10-28,59.0,49.6,43.3,48.0,44.8,40.6,93,84,61,29.82,29.65,7,0,12,0.00
2013-10-29,59.2,51.0,45.4,47.4,45.6,42.0,91,82,61,30.01,29.82,5,0,7,0.00
2013-10-30,66.5,52.0,45.0,51.4,45.2,41.2,93,79,53,30.11,30.01,3,0,5,0.00
2013-10-31,71.4,56.4,47.2,50.4,44.6,41.3,83,66,44,30.14,30.05,3,0,4,0.00
2013-11-1,72.8,62.2,52.7,49.2,45.4,42.1,67,55,42,30.11,29.99,8,0,8,0.00
2013-11-2,66.7,57.7,49.9,52.4,47.0,43.7,79,68,57,30.00,29.88,3,0,5,0.00
2013-11-3,61.7,53.6,47.9,44.2,35.9,26.8,79,53,32,30.01,29.89,8,0,10,0.00
2013-11-4,64.8,56.0,46.1,38.5,32.4,27.9,62,42,27,30.02,29.88,11,1,12,0.00
2013-11-5,68.9,60.4,52.2,39.5,35.3,31.3,46,39,33,30.19,30.02,14,0,14,0.00
2013-11-6,69.3,60.9,52.2,42.3,38.5,35.2,54,44,37,30.22,30.13,6,0,9,0.00
2013-11-7,71.2,60.9,52.4,48.6,41.8,36.7,78,50,39,30.14,30.05,3,0,4,0.00
2013-11-8,69.2,57.3,49.1,53.7,47.1,36.4,79,69,51,30.05,29.94,7,0,7,0.00
2013-11-9,70.3,59.3,51.7,53.0,45.2,34.9,73,60,46,30.01,29.94,6,0,11,0.00
2013-11-10,63.1,53.5,48.2,50.8,45.5,42.3,80,74,63,30.08,29.99,5,0,8,0.00
2013-11-11,66.4,55.8,47.2,52.9,47.2,41.7,81,73,56,30.14,30.03,5,0,9,0.00
2013-11-12,68.2,59.8,53.9,52.9,47.4,39.9,74,64,45,30.23,30.12,5,0,5,0.00
2013-11-13,71.5,60.2,50.4,56.2,49.1,44.1,79,67,51,30.21,30.07,3,0,6,0.00
2013-11-14,50.3,49.9,49.4,44.4,44.0,43.5,80,80,79,30.08,30.04,0,0,3,0.00
2013-12-8,42.6,33.1,28.4,27.5,22.0,15.3,84,65,46,30.23,30.14,0,0,8,0.00
2013-12-9,49.0,35.7,28.6,25.9,19.4,13.5,69,52,39,30.33,30.20,1,0,8,0.00
2013-12-10,52.0,38.5,32.0,31.2,25.9,21.0,77,61,42,30.32,30.14,0,0,8,0.00
2013-12-11,55.3,41.9,34.0,33.7,28.9,23.9,78,61,41,30.17,30.12,0,0,5,0.00
2013-12-12,59.2,45.5,38.7,38.7,33.2,28.4,81,63,43,30.20,30.11,0,0,3,0.00
2013-12-13,60.0,46.4,37.4,39.2,34.5,30.3,90,65,38,30.26,30.17,0,0,3,0.00
2013-12-14,54.5,49.3,42.1,37.8,32.7,26.7,71,53,40,30.33,30.25,9,1,14,1.16
2013-12-15,57.3,51.2,45.2,39.9,34.4,29.2,66,53,42,30.30,30.19,10,1,11,0.00
2013-12-16,62.9,56.6,51.8,38.2,33.8,30.5,48,42,38,30.19,30.08,13,2,16,0.00
2013-12-17,61.6,56.0,50.2,41.5,36.7,31.7,61,49,37,30.13,29.99,10,1,11,0.00
2013-12-18,59.0,52.3,45.4,45.8,38.8,31.7,82,62,39,30.00,29.73,7,0,7,0.00
2013-12-19,55.6,47.9,41.1,40.4,32.5,18.5,82,58,32,29.88,29.68,13,1,15,0.00
2013-12-20,55.4,49.4,43.5,34.1,21.7,11.3,60,34,24,29.96,29.87,12,0,13,0.00
2013-12-21,58.6,51.0,43.6,46.9,42.3,32.1,80,72,58,30.04,29.92,5,0,9,0.00
2013-12-22,59.4,54.7,49.1,44.3,38.5,35.7,77,55,45,30.23,30.04,14,2,14,0.00
2013-12-23,59.5,53.7,48.1,42.7,38.9,36.0,65,57,51,30.33,30.23,11,1,13,0.00
2013-12-24,62.5,57.6,52.2,43.4,39.5,35.0,59,51,42,30.28,30.17,8,1,15,0.00
2013-12-25,59.0,54.8,46.7,43.3,38.1,34.0,71,54,42,30.24,30.16,15,2,16,0.00
2013-12-26,61.8,56.3,50.4,40.5,36.2,31.7,60,47,37,30.20,30.13,7,1,14,0.00
2013-12-27,59.5,53.7,50.0,42.9,37.2,32.5,63,54,42,30.18,30.08,8,0,9,0.00
2013-12-28,62.1,54.7,47.3,37.5,32.7,28.6,61,44,33,30.09,30.00,14,1,14,0.00
2013-12-29,60.0,55.1,51.4,32.8,26.3,21.3,45,33,27,30.13,30.04,17,3,22,0.00
2013-12-30,62.5,53.0,47.6,43.0,36.8,31.0,61,54,43,30.20,30.13,10,1,10,0.00
2013-12-31,58.6,52.5,47.2,43.0,35.0,29.8,68,52,40,30.21,30.11,7,0,8,0.00
2014-1-1,63.4,56.5,49.6,42.3,32.1,28.5,54,40,32,30.16,30.08,7,0,7,0.00
2014-1-2,61.5,55.9,48.6,38.9,34.8,30.6,55,45,36,30.12,30.02,11,1,11,0.00